^^
Datos históricos de la estación: Murcia-Puente Tocinos
 
Diario Informe para Abril 26, 2017 Unidades:  Métrico    Inglés   Ambas
« Anterior Día
Siguiente Día »
Diario Semanal Mensual Anual Configurable
  Actual: Máximo: Mínimo: Media:
Temperatura: 25.3 °C 25.6 °C 15.3 °C 19.1 °C
Punto de rocio: 9.2 °C 11.5 °C 8.3 °C 10.7 °C
Humedad: 36% 76% 35% 60%
Velocidad viento: 5.8km/h 10.0km/h 2.3km/h 6.1km/h
Racha viento: 41.2km/h 41.2km/h - -
VientoWSW - - SSO
Presión: 1004.6 hPa 1006.0 hPa 1004.3 hPa -
Precipitación: 0.0 mm      
Historical Graphs
 
 
Tabla de datos para Abril 26, 2017
Hora Temperatura Punto de rocio Presión Viento Velocidad viento Racha viento Humedad Intensidad lluvia(por hora) Nubes
00:03 19.2 °C 9.4 °C 1006.0 hPa SSW 6.9 km/h 41.2 km/h 53% 0.0 mm CLR
00:08 18.9 °C 9.7 °C 1006.0 hPa SW 10.0 km/h 41.2 km/h 55% 0.0 mm CLR
00:13 18.7 °C 9.7 °C 1006.0 hPa WSW 10.0 km/h 41.2 km/h 56% 0.0 mm CLR
00:18 18.5 °C 9.6 °C 1006.0 hPa WSW 8.4 km/h 41.2 km/h 56% 0.0 mm SCT
00:23 18.3 °C 9.6 °C 1006.0 hPa SW 8.4 km/h 41.2 km/h 57% 0.0 mm SCT
00:28 18.2 °C 9.8 °C 1006.0 hPa WSW 8.7 km/h 41.2 km/h 58% 0.0 mm SCT
00:33 18.2 °C 9.8 °C 1006.0 hPa WSW 8.7 km/h 41.2 km/h 58% 0.0 mm SCT
00:38 18.1 °C 9.9 °C 1006.0 hPa SW 5.8 km/h 41.2 km/h 59% 0.0 mm SCT
00:43 18.1 °C 9.9 °C 1006.0 hPa WSW 5.8 km/h 41.2 km/h 59% 0.0 mm SCT
00:48 18.1 °C 10.2 °C 1006.0 hPa SW 6.4 km/h 41.2 km/h 60% 0.0 mm SCT
00:53 17.9 °C 10.0 °C 1005.6 hPa SW 6.4 km/h 41.2 km/h 60% 0.0 mm SCT
00:58 17.9 °C 10.3 °C 1005.6 hPa SW 8.7 km/h 41.2 km/h 61% 0.0 mm SCT
01:03 17.9 °C 10.5 °C 1005.6 hPa SSW 8.7 km/h 41.2 km/h 62% 0.0 mm SCT
01:08 17.8 °C 10.7 °C 1005.6 hPa South 8.7 km/h 41.2 km/h 63% 0.0 mm SCT
01:13 17.8 °C 10.7 °C 1005.6 hPa SSW 8.7 km/h 41.2 km/h 63% 0.0 mm SCT
01:18 17.7 °C 10.8 °C 1005.6 hPa SW 8.4 km/h 41.2 km/h 64% 0.0 mm CLR
01:19 17.7 °C 10.8 °C 1005.6 hPa SW 8.4 km/h 41.2 km/h 64% 0.0 mm CLR
01:24 17.7 °C 11.1 °C 1005.6 hPa SSW 8.4 km/h 41.2 km/h 65% 0.0 mm CLR
01:29 17.6 °C 11.2 °C 1005.6 hPa SSW 6.9 km/h 41.2 km/h 66% 0.0 mm CLR
01:34 17.6 °C 11.2 °C 1005.6 hPa South 6.9 km/h 41.2 km/h 66% 0.0 mm CLR
01:39 17.5 °C 11.3 °C 1005.3 hPa SSW 8.4 km/h 41.2 km/h 67% 0.0 mm CLR
01:44 17.5 °C 11.3 °C 1005.3 hPa WSW 8.4 km/h 41.2 km/h 67% 0.0 mm CLR
01:49 17.4 °C 11.2 °C 1005.3 hPa WSW 7.6 km/h 41.2 km/h 67% 0.0 mm CLR
01:54 17.4 °C 11.4 °C 1005.3 hPa SSW 7.6 km/h 41.2 km/h 68% 0.0 mm CLR
01:59 17.4 °C 11.4 °C 1005.3 hPa South 6.9 km/h 41.2 km/h 68% 0.0 mm CLR
02:04 17.3 °C 11.3 °C 1005.3 hPa SW 6.9 km/h 41.2 km/h 68% 0.0 mm CLR
02:09 17.2 °C 11.4 °C 1005.3 hPa SW 9.5 km/h 41.2 km/h 69% 0.0 mm CLR
02:14 17.2 °C 11.4 °C 1005.3 hPa South 9.5 km/h 41.2 km/h 69% 0.0 mm CLR
02:19 17.1 °C 11.4 °C 1005.3 hPa SW 7.6 km/h 41.2 km/h 69% 0.0 mm CLR
02:24 17.2 °C 11.4 °C 1005.0 hPa WSW 7.6 km/h 41.2 km/h 69% 0.0 mm CLR
02:29 17.2 °C 11.4 °C 1005.0 hPa WSW 6.4 km/h 41.2 km/h 69% 0.0 mm CLR
02:34 17.1 °C 11.4 °C 1005.0 hPa SW 6.4 km/h 41.2 km/h 69% 0.0 mm CLR
02:39 17.1 °C 11.4 °C 1005.0 hPa South 4.7 km/h 41.2 km/h 69% 0.0 mm CLR
02:44 17.1 °C 11.4 °C 1005.0 hPa SSE 4.7 km/h 41.2 km/h 69% 0.0 mm CLR
02:49 17.2 °C 11.2 °C 1005.0 hPa SSW 5.0 km/h 41.2 km/h 68% 0.0 mm CLR
02:54 17.2 °C 11.2 °C 1004.6 hPa SSW 5.0 km/h 41.2 km/h 68% 0.0 mm CLR
02:59 17.2 °C 11.2 °C 1004.6 hPa South 4.7 km/h 41.2 km/h 68% 0.0 mm CLR
03:04 17.2 °C 11.2 °C 1004.6 hPa SSE 4.7 km/h 41.2 km/h 68% 0.0 mm CLR
03:09 17.1 °C 10.9 °C 1004.6 hPa SSE 4.7 km/h 41.2 km/h 67% 0.0 mm CLR
03:14 17.1 °C 11.2 °C 1004.6 hPa SSW 4.7 km/h 41.2 km/h 68% 0.0 mm CLR
03:19 17.1 °C 11.2 °C 1004.6 hPa SSW 6.4 km/h 41.2 km/h 68% 0.0 mm CLR
03:24 17.1 °C 11.2 °C 1004.3 hPa SW 6.4 km/h 41.2 km/h 68% 0.0 mm CLR
03:29 17.1 °C 11.2 °C 1004.3 hPa SW 4.7 km/h 41.2 km/h 68% 0.0 mm CLR
03:34 17.2 °C 11.2 °C 1004.3 hPa SSW 4.7 km/h 41.2 km/h 68% 0.0 mm CLR
03:39 17.2 °C 11.2 °C 1004.3 hPa South 4.7 km/h 41.2 km/h 68% 0.0 mm CLR
03:44 17.1 °C 11.2 °C 1004.3 hPa South 4.7 km/h 41.2 km/h 68% 0.0 mm CLR
03:49 17.1 °C 11.2 °C 1004.3 hPa South 5.8 km/h 41.2 km/h 68% 0.0 mm CLR
03:54 17.0 °C 11.1 °C 1004.3 hPa SSE 5.8 km/h 41.2 km/h 68% 0.0 mm CLR
03:59 16.9 °C 11.2 °C 1004.3 hPa SSE 6.9 km/h 41.2 km/h 69% 0.0 mm CLR
04:04 16.8 °C 11.3 °C 1004.3 hPa South 6.9 km/h 41.2 km/h 70% 0.0 mm CLR
04:09 16.7 °C 11.2 °C 1004.3 hPa SSE 6.4 km/h 41.2 km/h 70% 0.0 mm CLR
04:14 16.6 °C 11.1 °C 1004.3 hPa SSE 6.4 km/h 41.2 km/h 70% 0.0 mm CLR
04:19 16.6 °C 11.1 °C 1004.3 hPa SE 4.7 km/h 41.2 km/h 70% 0.0 mm CLR
04:24 16.5 °C 11.2 °C 1004.3 hPa SSE 4.7 km/h 41.2 km/h 71% 0.0 mm CLR
04:29 16.5 °C 11.2 °C 1004.3 hPa SSE 4.7 km/h 41.2 km/h 71% 0.0 mm CLR
04:34 16.5 °C 11.2 °C 1004.3 hPa SSE 4.7 km/h 41.2 km/h 71% 0.0 mm CLR
04:39 16.5 °C 11.2 °C 1004.3 hPa SSW 2.9 km/h 41.2 km/h 71% 0.0 mm CLR
04:44 16.5 °C 11.2 °C 1004.3 hPa SSW 2.9 km/h 41.2 km/h 71% 0.0 mm CLR
04:49 16.6 °C 11.3 °C 1004.3 hPa West 3.9 km/h 41.2 km/h 71% 0.0 mm CLR
04:54 16.5 °C 11.0 °C 1004.3 hPa WSW 3.9 km/h 41.2 km/h 70% 0.0 mm CLR
04:59 16.4 °C 11.1 °C 1004.3 hPa SW 3.2 km/h 41.2 km/h 71% 0.0 mm CLR
05:04 16.4 °C 11.1 °C 1004.3 hPa SW 3.2 km/h 41.2 km/h 71% 0.0 mm CLR
05:09 16.4 °C 11.1 °C 1004.3 hPa West 3.9 km/h 41.2 km/h 71% 0.0 mm CLR
05:14 16.5 °C 11.2 °C 1004.3 hPa SW 3.9 km/h 41.2 km/h 71% 0.0 mm CLR
05:19 16.5 °C 11.2 °C 1004.3 hPa SW 6.9 km/h 41.2 km/h 71% 0.0 mm CLR
05:24 16.5 °C 11.2 °C 1004.3 hPa SSE 6.9 km/h 41.2 km/h 71% 0.0 mm CLR
05:29 16.6 °C 11.3 °C 1004.3 hPa SSW 4.7 km/h 41.2 km/h 71% 0.0 mm CLR
05:34 16.5 °C 11.2 °C 1004.3 hPa South 4.7 km/h 41.2 km/h 71% 0.0 mm CLR
05:39 16.4 °C 11.1 °C 1004.3 hPa SSE 5.8 km/h 41.2 km/h 71% 0.0 mm CLR
05:44 16.3 °C 11.1 °C 1004.3 hPa SSE 5.8 km/h 41.2 km/h 71% 0.0 mm CLR
05:49 16.3 °C 11.2 °C 1004.3 hPa NW 5.8 km/h 41.2 km/h 72% 0.0 mm CLR
05:54 16.2 °C 11.2 °C 1004.3 hPa East 5.8 km/h 41.2 km/h 72% 0.0 mm CLR
05:59 16.0 °C 11.2 °C 1004.3 hPa SSE 3.2 km/h 41.2 km/h 73% 0.0 mm CLR
06:04 15.8 °C 10.9 °C 1004.3 hPa SE 3.2 km/h 41.2 km/h 73% 0.0 mm CLR
06:09 15.7 °C 11.1 °C 1004.3 hPa SSE 5.8 km/h 41.2 km/h 74% 0.0 mm CLR
06:14 15.5 °C 11.1 °C 1004.3 hPa SSE 5.8 km/h 41.2 km/h 75% 0.0 mm CLR
06:19 15.4 °C 11.0 °C 1004.3 hPa SE 7.6 km/h 41.2 km/h 75% 0.0 mm CLR
06:24 15.3 °C 11.1 °C 1004.3 hPa SSE 7.6 km/h 41.2 km/h 76% 0.0 mm CLR
06:29 15.3 °C 10.9 °C 1004.3 hPa SW 8.7 km/h 41.2 km/h 75% 0.0 mm CLR
06:34 15.4 °C 11.0 °C 1004.3 hPa SSW 8.7 km/h 41.2 km/h 75% 0.0 mm CLR
06:39 15.6 °C 11.0 °C 1004.3 hPa SSW 8.4 km/h 41.2 km/h 74% 0.0 mm CLR
06:44 15.8 °C 10.9 °C 1004.3 hPa West 8.4 km/h 41.2 km/h 73% 0.0 mm CLR
06:49 15.9 °C 10.8 °C 1004.3 hPa SW 8.4 km/h 41.2 km/h 72% 0.0 mm CLR
06:54 16.2 °C 11.2 °C 1004.6 hPa SSW 8.4 km/h 41.2 km/h 72% 0.0 mm CLR
06:59 16.3 °C 11.1 °C 1004.6 hPa SSW 6.9 km/h 41.2 km/h 71% 0.0 mm CLR
07:04 16.3 °C 11.1 °C 1004.6 hPa SSW 6.9 km/h 41.2 km/h 71% 0.0 mm CLR
07:09 16.4 °C 10.9 °C 1004.6 hPa WSW 6.9 km/h 41.2 km/h 70% 0.0 mm CLR
07:14 16.4 °C 10.9 °C 1004.6 hPa WSW 6.9 km/h 41.2 km/h 70% 0.0 mm CLR
07:19 16.4 °C 10.9 °C 1004.6 hPa SW 5.8 km/h 41.2 km/h 70% 0.0 mm CLR
07:24 16.4 °C 11.1 °C 1004.6 hPa SSW 5.8 km/h 41.2 km/h 71% 0.0 mm CLR
07:29 16.3 °C 11.1 °C 1004.6 hPa SSW 2.9 km/h 41.2 km/h 71% 0.0 mm CLR
07:34 16.3 °C 11.1 °C 1004.6 hPa SSW 2.9 km/h 41.2 km/h 71% 0.0 mm CLR
07:39 16.2 °C 10.9 °C 1004.6 hPa West 2.3 km/h 41.2 km/h 71% 0.0 mm CLR
07:44 16.1 °C 11.1 °C 1004.6 hPa SSW 2.3 km/h 41.2 km/h 72% 0.0 mm CLR
07:49 16.1 °C 11.1 °C 1004.6 hPa West 3.2 km/h 41.2 km/h 72% 0.0 mm CLR
07:54 16.1 °C 11.1 °C 1004.6 hPa WNW 3.2 km/h 41.2 km/h 72% 0.0 mm CLR
07:59 16.1 °C 11.1 °C 1004.6 hPa WSW 3.2 km/h 41.2 km/h 72% 0.0 mm CLR
08:04 16.2 °C 11.2 °C 1004.6 hPa SSW 3.2 km/h 41.2 km/h 72% 0.0 mm CLR
08:09 16.3 °C 11.2 °C 1005.0 hPa SSW 3.9 km/h 41.2 km/h 72% 0.0 mm CLR
08:14 16.6 °C 11.3 °C 1005.0 hPa SSW 3.9 km/h 41.2 km/h 71% 0.0 mm CLR
08:19 16.8 °C 11.3 °C 1005.0 hPa South 2.9 km/h 41.2 km/h 70% 0.0 mm FEW
08:24 17.1 °C 11.2 °C 1005.0 hPa SSW 2.9 km/h 41.2 km/h 68% 0.0 mm FEW
08:29 17.2 °C 11.2 °C 1005.0 hPa SSW 3.9 km/h 41.2 km/h 68% 0.0 mm FEW
08:34 17.4 °C 11.2 °C 1005.0 hPa SSW 3.9 km/h 41.2 km/h 67% 0.0 mm FEW
08:39 17.5 °C 11.3 °C 1005.0 hPa South 5.0 km/h 41.2 km/h 67% 0.0 mm FEW
08:44 17.7 °C 11.3 °C 1005.0 hPa SSW 5.0 km/h 41.2 km/h 66% 0.0 mm FEW
08:49 17.7 °C 11.3 °C 1005.0 hPa SSW 6.4 km/h 41.2 km/h 66% 0.0 mm FEW
08:54 17.9 °C 11.4 °C 1005.0 hPa SW 6.4 km/h 41.2 km/h 66% 0.0 mm FEW
08:59 18.1 °C 11.4 °C 1005.0 hPa SW 5.0 km/h 41.2 km/h 65% 0.0 mm FEW
09:04 18.2 °C 11.3 °C 1005.0 hPa SSW 5.0 km/h 41.2 km/h 64% 0.0 mm FEW
09:09 18.4 °C 11.2 °C 1005.0 hPa SSW 4.8 km/h 9.7 km/h 63% 0.0 mm CLR
09:14 18.7 °C 11.5 °C 1005.0 hPa SSW 5.8 km/h 41.2 km/h 63% 0.0 mm CLR
09:19 18.9 °C 11.4 °C 1005.0 hPa South 6.9 km/h 41.2 km/h 62% 0.0 mm FEW
09:24 19.2 °C 11.5 °C 1005.0 hPa South 8.0 km/h 11.3 km/h 61% 0.0 mm CLR
09:29 19.4 °C 11.2 °C 1005.0 hPa South 8.0 km/h 9.7 km/h 59% 0.0 mm CLR
09:34 19.6 °C 11.1 °C 1005.0 hPa SSW 6.9 km/h 41.2 km/h 58% 0.0 mm CLR
09:39 19.8 °C 11.1 °C 1005.3 hPa South 8.0 km/h 12.9 km/h 57% 0.0 mm CLR
09:44 19.9 °C 11.2 °C 1005.3 hPa SSE 8.0 km/h 14.5 km/h 57% 0.0 mm CLR
09:49 20.2 °C 10.9 °C 1005.3 hPa SW 8.7 km/h 41.2 km/h 55% 0.0 mm FEW
09:54 20.4 °C 10.8 °C 1005.3 hPa SSW 8.7 km/h 41.2 km/h 54% 0.0 mm FEW
09:59 20.7 °C 10.8 °C 1005.3 hPa SW 9.5 km/h 41.2 km/h 53% 0.0 mm FEW
10:04 20.9 °C 11.0 °C 1005.3 hPa SSW 9.7 km/h 14.5 km/h 53% 0.0 mm CLR
10:05 21.0 °C 10.8 °C 1005.3 hPa SSW 9.5 km/h 41.2 km/h 52% 0.0 mm FEW
10:10 21.3 °C 10.4 °C 1005.3 hPa SSE 8.4 km/h 41.2 km/h 50% 0.0 mm FEW
10:15 21.6 °C 10.4 °C 1005.3 hPa SW 8.4 km/h 41.2 km/h 49% 0.0 mm SCT
10:20 21.7 °C 10.5 °C 1005.0 hPa SW 8.4 km/h 41.2 km/h 49% 0.0 mm SCT
10:25 21.8 °C 10.3 °C 1005.0 hPa SSW 8.4 km/h 41.2 km/h 48% 0.0 mm SCT
10:30 22.0 °C 10.5 °C 1005.0 hPa SSE 7.6 km/h 41.2 km/h 48% 0.0 mm SCT
10:35 22.2 °C 10.7 °C 1005.0 hPa SSW 7.6 km/h 41.2 km/h 48% 0.0 mm SCT
10:40 22.3 °C 10.4 °C 1005.0 hPa WSW 6.9 km/h 41.2 km/h 47% 0.0 mm SCT
10:45 22.6 °C 10.7 °C 1005.0 hPa SW 6.9 km/h 41.2 km/h 47% 0.0 mm SCT
10:50 22.8 °C 10.6 °C 1005.0 hPa SW 5.0 km/h 41.2 km/h 46% 0.0 mm SCT
10:55 22.9 °C 10.7 °C 1005.0 hPa West 5.0 km/h 41.2 km/h 46% 0.0 mm SCT
11:00 22.9 °C 10.7 °C 1005.0 hPa WNW 7.6 km/h 41.2 km/h 46% 0.0 mm SCT
11:05 23.2 °C 10.6 °C 1005.3 hPa NNE 7.6 km/h 41.2 km/h 45% 0.0 mm CLR
11:10 23.5 °C 10.6 °C 1005.3 hPa NW 6.4 km/h 41.2 km/h 44% 0.0 mm SCT
11:15 23.7 °C 10.7 °C 1005.3 hPa WNW 6.4 km/h 41.2 km/h 44% 0.0 mm FEW
11:21 23.8 °C 10.4 °C 1005.3 hPa NW 5.8 km/h 41.2 km/h 43% 0.0 mm FEW
11:25 23.9 °C 10.6 °C 1005.3 hPa ESE 5.8 km/h 41.2 km/h 43% 0.0 mm FEW
11:31 24.2 °C 10.5 °C 1005.3 hPa West 5.8 km/h 41.2 km/h 42% 0.0 mm FEW
11:36 24.4 °C 10.7 °C 1005.3 hPa SSW 5.8 km/h 41.2 km/h 42% 0.0 mm FEW
11:41 24.4 °C 9.9 °C 1005.3 hPa WNW 5.8 km/h 41.2 km/h 40% 0.0 mm FEW
11:46 24.2 °C 10.1 °C 1005.3 hPa West 5.8 km/h 41.2 km/h 41% 0.0 mm FEW
11:51 24.2 °C 10.1 °C 1005.0 hPa West 8.7 km/h 41.2 km/h 41% 0.0 mm FEW
11:56 24.3 °C 10.2 °C 1005.0 hPa SSW 8.7 km/h 41.2 km/h 41% 0.0 mm FEW
11:57 24.3 °C 10.2 °C 1005.0 hPa SSE 5.0 km/h 41.2 km/h 41% 0.0 mm FEW
12:02 24.4 °C 9.9 °C 1005.0 hPa SW 5.0 km/h 41.2 km/h 40% 0.0 mm FEW
12:07 24.6 °C 9.7 °C 1005.0 hPa NNW 6.9 km/h 41.2 km/h 39% 0.0 mm FEW
12:12 24.8 °C 9.9 °C 1005.0 hPa NNW 6.9 km/h 41.2 km/h 39% 0.0 mm FEW
12:17 24.8 °C 9.9 °C 1005.0 hPa East 5.0 km/h 41.2 km/h 39% 0.0 mm SCT
12:22 24.9 °C 9.6 °C 1005.3 hPa SSW 5.0 km/h 41.2 km/h 38% 0.0 mm SCT
12:27 24.8 °C 9.5 °C 1005.3 hPa SSW 3.9 km/h 41.2 km/h 38% 0.0 mm SCT
12:32 24.7 °C 9.4 °C 1005.3 hPa West 3.9 km/h 41.2 km/h 38% 0.0 mm SCT
12:37 24.6 °C 8.9 °C 1005.0 hPa WSW 7.6 km/h 41.2 km/h 37% 0.0 mm SCT
12:42 24.7 °C 9.0 °C 1005.0 hPa ENE 7.6 km/h 41.2 km/h 37% 0.0 mm SCT
12:47 24.8 °C 8.7 °C 1005.0 hPa WSW 5.0 km/h 41.2 km/h 36% 0.0 mm SCT
12:52 24.8 °C 8.3 °C 1005.0 hPa SW 5.0 km/h 41.2 km/h 35% 0.0 mm SCT
12:57 24.6 °C 8.6 °C 1005.0 hPa SSW 7.6 km/h 41.2 km/h 36% 0.0 mm SCT
13:02 24.8 °C 8.7 °C 1005.0 hPa SSE 7.6 km/h 41.2 km/h 36% 0.0 mm SCT
13:07 25.1 °C 8.6 °C 1005.0 hPa SSE 3.2 km/h 41.2 km/h 35% 0.0 mm SCT
13:12 25.1 °C 9.0 °C 1005.0 hPa ESE 3.2 km/h 41.2 km/h 36% 0.0 mm FEW
13:17 25.1 °C 9.0 °C 1005.0 hPa SSW 4.7 km/h 41.2 km/h 36% 0.0 mm FEW
13:22 25.4 °C 9.2 °C 1004.6 hPa West 4.7 km/h 41.2 km/h 36% 0.0 mm FEW
13:27 25.3 °C 9.2 °C 1004.6 hPa SSW 4.7 km/h 41.2 km/h 36% 0.0 mm FEW
13:32 25.4 °C 9.2 °C 1004.6 hPa NNW 4.7 km/h 41.2 km/h 36% 0.0 mm FEW
13:37 25.6 °C 9.4 °C 1004.6 hPa SW 4.7 km/h 41.2 km/h 36% 0.0 mm FEW
13:42 25.5 °C 9.3 °C 1004.6 hPa West 4.7 km/h 41.2 km/h 36% 0.0 mm FEW
13:47 25.3 °C 9.2 °C 1004.6 hPa SW 5.8 km/h 41.2 km/h 36% 0.0 mm FEW
13:52 25.3 °C 9.2 °C 1004.6 hPa WSW 5.8 km/h 41.2 km/h 36% 0.0 mm FEW
Murcia-Puente Tocinos, España
Compliments of Weather Underground - 2.25 mb

La estación de MeteoMurcia.com, publica sus datos en los siguientes proyectos:

Meteoclimatic www.awekas.at

W3Counter
Web Analytics